Weather History for KCSM - October, 2014

Change the Weather History Date:

Friday, October 31, 2014

  Actual Average Record
Temperature  
Mean Temperature 49 °F -  
Max Temperature 59 °F 62 °F 81 °F (2008)
Min Temperature 39 °F 43 °F 34 °F (1996)
Degree Days  
Heating Degree Days 16    
Moisture  
Dew Point 31 °F    
Average Humidity 52    
Maximum Humidity 76    
Minimum Humidity 28    
Precipitation  
Precipitation 0.00 in - - ()
Sea Level Pressure  
Sea Level Pressure 30.39 in    
Wind  
Wind Speed 12 mph (NNE)    
Max Wind Speed 20 mph    
Max Gust Speed 24 mph    
Visibility 10 miles    
Events      
Averages and records for this station are not official NWS values.
T = Trace of Precipitation, MM = Missing Value Source: NWS Daily Summary

Daily Weather History Graph

Daily Weather History Graph

Search for Another Location

Airport or City:

Trip Planner

Search our weather history database for the weather conditions in past years. The results will help you decide how hot, cold, wet, or windy it might be!

Date:

Astronomy

Oct. 31, 2014 Rise Set
Actual Time 7:57 AM CDT 6:42 PM CDT
Civil Twilight 7:31 AM CDT 7:09 PM CDT
Nautical Twilight 7:01 AM CDT 7:39 PM CDT
Astronomical Twilight 6:31 AM CDT 8:08 PM CDT
Moon 2:44 PM CDT (10/31) 1:03 AM CDT (10/31)
Length of Visible Light 11h 38m
Length of Day
10h 45m
First Quarter, 57% of the Moon is Illuminated
Oct 31
First Quarter
Nov 6
Full
Nov 14
Last Quarter
Nov 22
New
Nov 29
First Quarter

Hourly Weather History & Observations

Time (CDT) Temp. Windchill Dew Point Humidity Pressure Visibility Wind Dir Wind Speed Gust Speed Precip Events Conditions
12:53 AM 51.1 °F - 34.0 °F 52% 30.27 in 10.0 mi North 9.2 mph - N/A   Clear
1:53 AM 51.1 °F - 35.1 °F 54% 30.29 in 10.0 mi NNW 9.2 mph - N/A   Clear
2:53 AM 48.0 °F - 35.1 °F 61% 30.31 in 10.0 mi North 10.4 mph - N/A   Clear
3:53 AM 50.0 °F - 35.1 °F 57% 30.32 in 10.0 mi North 12.7 mph - N/A   Clear
4:53 AM 48.9 °F - 35.1 °F 59% 30.33 in 10.0 mi North 12.7 mph - N/A   Clear
5:53 AM 46.9 °F - 35.1 °F 63% 30.35 in 10.0 mi NNE 11.5 mph - N/A   Clear
6:53 AM 46.0 °F 40.2 °F 35.1 °F 66% 30.38 in 10.0 mi North 12.7 mph - N/A   Clear
7:53 AM 43.0 °F 35.7 °F 36.0 °F 76% 30.41 in 10.0 mi North 15.0 mph - N/A   Clear
8:53 AM 44.1 °F 35.9 °F 36.0 °F 73% 30.44 in 10.0 mi North 19.6 mph - N/A   Clear
9:53 AM 46.0 °F 39.3 °F 36.0 °F 68% 30.46 in 10.0 mi North 16.1 mph - N/A   Clear
10:53 AM 48.0 °F - 36.0 °F 63% 30.48 in 10.0 mi North 16.1 mph - N/A   Partly Cloudy
11:53 AM 51.1 °F - 34.0 °F 52% 30.47 in 10.0 mi North 15.0 mph - N/A   Clear
12:53 PM 53.1 °F - 33.1 °F 47% 30.46 in 10.0 mi North 15.0 mph 23.0 mph N/A   Clear
1:53 PM 55.9 °F - 30.0 °F 37% 30.42 in 10.0 mi NNE 15.0 mph 24.2 mph N/A   Clear
2:53 PM 57.9 °F - 28.0 °F 32% 30.39 in 10.0 mi NE 19.6 mph 24.2 mph N/A   Clear
3:53 PM 57.9 °F - 25.0 °F 28% 30.38 in 10.0 mi North 12.7 mph - N/A   Clear
4:53 PM 57.0 °F - 24.1 °F 28% 30.38 in 10.0 mi NE 13.8 mph - N/A   Clear
5:53 PM 55.0 °F - 26.1 °F 33% 30.39 in 10.0 mi NE 10.4 mph - N/A   Clear
6:53 PM 48.9 °F - 28.0 °F 44% 30.40 in 10.0 mi NE 5.8 mph - N/A   Clear
7:53 PM 46.9 °F - 28.0 °F 48% 30.42 in 10.0 mi ENE 8.1 mph - N/A   Clear
8:53 PM 45.0 °F 39.7 °F 27.0 °F 49% 30.42 in 10.0 mi ENE 10.4 mph - N/A   Clear
9:53 PM 42.1 °F 36.6 °F 26.1 °F 53% 30.43 in 10.0 mi East 9.2 mph - N/A   Clear
10:53 PM 41.0 °F 35.8 °F 26.1 °F 55% 30.42 in 10.0 mi East 8.1 mph - N/A   Clear
11:53 PM 39.9 °F 35.1 °F 25.0 °F 55% 30.40 in 10.0 mi East 6.9 mph - N/A   Clear